Flag for Czech Republic Weather past 2 weeks in Prague, Czech Republic

Now
41 °F

Clear.


Feels Like: 36 °F
Forecast: 54 / 67 °F
Wind: 7 mph from Southwest

Location: Prague Ruzyne Airport

Current Time: Apr 25, 2015 at 6:22:25 AM

Latest Report: Apr 25, 2015 at 5:30 AM


Visibility: 10 mi

Pressure: 29.89 "Hg

Humidity: 81%

Dew point: 36 °F

Location of PragueLocation

Historic Weather in Prague — Graph

°F

Prague temperature yesterday

Maximum temperature yesterday: 64 °F (at 5:30 PM)
Minimum temperature yesterday: 43 °F (at 6:00 AM)
Average temperature yesterday: 54 °F

Past Weeks' High & Low Weather Summary

 TemperatureHumidityPressure
High73 °F (Apr 15, 3:00 PM)93% (Apr 10, 7:30 AM)30.42 "Hg (Apr 10, 7:30 AM)
Low30 °F (Apr 19, 6:00 AM)20% (Apr 15, 5:00 PM)29.86 "Hg (Apr 16, 5:30 AM)
Average51 °F59%30.13 "Hg
* Reported Apr 10 5:00 AM — Apr 25 5:00 AM, Prague, Weather by CustomWeather, © 2015

Note: Actual official high and low records may vary slightly from our data, if they occured in-between our weather recording intervals... More about our weather records

Advertising

Prague weather history for previous 24 hours

 ConditionsComfort  
Time TempWeatherWind HumidityBarometerVisibility
5:00 AM
Sat, Apr 25
43 °FPassing clouds.7 mph71%29.89 "HgN/A
4:30 AM43 °FClear.6 mph76%29.89 "Hg10 mi
4:00 AM45 °FClear.8 mph66%29.89 "Hg10 mi
3:30 AM45 °FClear.8 mph71%29.92 "Hg10 mi
3:00 AM45 °FClear.9 mph71%29.92 "Hg10 mi
2:30 AM45 °FClear.10 mph71%29.92 "Hg10 mi
2:00 AM46 °FClear.10 mph66%29.92 "Hg10 mi
1:30 AM48 °FClear.10 mph62%29.92 "Hg10 mi
1:00 AM46 °FClear.12 mph66%29.92 "Hg10 mi
12:30 AM48 °FClear.10 mph66%29.92 "Hg10 mi
12:00 AM48 °FClear.10 mph66%29.92 "Hg10 mi
11:00 PM
Fri, Apr 24
48 °FClear.10 mph71%29.92 "Hg10 mi
10:30 PM50 °FClear.7 mph67%29.92 "Hg10 mi
10:00 PM52 °FClear.7 mph62%29.92 "Hg10 mi
9:30 PM54 °FClear.6 mph58%29.92 "Hg10 mi
9:00 PM54 °FSunny.5 mph58%29.92 "Hg10 mi
8:30 PM55 °FSunny.6 mph55%29.92 "Hg10 mi
8:00 PM57 °FSunny.5 mph55%29.92 "Hg10 mi
7:30 PM59 °FSunny.6 mph51%29.92 "Hg10 mi
7:00 PM63 °FPassing clouds.5 mph49%29.92 "HgN/A
6:30 PM63 °FPassing clouds.6 mph45%29.92 "HgN/A
6:00 PM64 °FPassing clouds.5 mph43%29.92 "HgN/A
5:30 PM64 °FSunny.2 mph43%29.92 "Hg10 mi
5:00 PM63 °FPassing clouds.7 mph49%29.92 "HgN/A
4:30 PM63 °FSunny.2 mph45%29.92 "Hg10 mi
4:00 PM63 °FPassing clouds.6 mph45%29.95 "HgN/A
3:30 PM63 °FScattered clouds.5 mph45%29.95 "HgN/A
3:00 PM61 °FPartly sunny.5 mph48%29.95 "HgN/A
2:30 PM63 °FPartly sunny.7 mph49%29.95 "HgN/A
2:00 PM63 °FScattered clouds.7 mph45%29.98 "HgN/A
1:30 PM63 °FPassing clouds.7 mph49%29.98 "HgN/A
1:00 PM61 °FPassing clouds.7 mph55%29.98 "HgN/A
12:30 PM59 °FPassing clouds.6 mph55%29.98 "HgN/A
12:00 PM59 °FPassing clouds.6 mph55%30.01 "HgN/A
11:30 AM57 °FPassing clouds.5 mph59%30.01 "HgN/A
11:00 AM57 °FPassing clouds.6 mph59%30.01 "HgN/A
10:30 AM55 °FPassing clouds.7 mph63%30.01 "HgN/A
10:00 AM54 °FSunny.8 mph67%30.01 "Hg10 mi
9:30 AM52 °FSunny.8 mph72%30.01 "Hg10 mi
9:00 AM52 °FPassing clouds.7 mph67%30.01 "HgN/A
8:30 AM50 °FSunny.10 mph71%29.98 "Hg10 mi
8:00 AM48 °FSunny.8 mph76%29.98 "Hg10 mi
7:30 AM48 °FSunny.8 mph76%29.98 "Hg10 mi
7:00 AM46 °FSunny.9 mph82%29.98 "Hg10 mi
6:30 AM45 °FClear.8 mph81%29.98 "Hg10 mi
6:00 AM43 °FClear.8 mph81%29.98 "Hg10 mi
Weather by CustomWeather, © 2015

See weather overviewHow to use our weather pages